Lapse_Rate
0.4 0.4 1.5 4.3 6.5 6.5 6.5 6.5 6.5 6.5 6.5 7.3 7.3 7.0 6.6 7.2 6.6 6.5 6.4 6.1 5.4 5.2 4.6 4.9 4.3 4.8 4.9 4.5 5.0 5.2 5.2 5.2 5.4 5.5 5.2 5.2 5.5 5.5 5.2 4.8 5.2 5.3 5.9 6.2 6.0 6.0 6.0 5.5 5.4
0.9 2.0 2.9 3.9 6.5 6.5 6.5 6.5 6.5 6.5 7.1 7.3 7.3 7.3 7.0 6.6 7.5 7.0 7.1 5.5 5.3 4.6 4.3 4.4 3.9 3.9 4.0 4.2 4.2 4.5 4.6 4.8 4.8 5.0 5.4 5.6 5.4 5.2 5.0 4.8 5.0 4.8 5.4 5.7 6.3 6.3 5.9 5.7 5.3
2.2 2.1 6.0 6.5 6.5 6.5 6.5 6.5 6.5 6.9 6.9 7.3 7.1 7.3 7.4 7.1 6.8 7.2 6.1 5.5 4.9 4.2 3.6 3.6 3.3 3.9 4.0 3.8 3.8 4.0 3.8 3.8 3.8 4.1 4.3 4.9 5.5 5.3 4.9 4.6 4.7 5.1 5.6 5.7 5.8 5.7 5.3 4.7 4.6
3.9 5.1 5.6 6.5 6.5 6.5 6.5 6.5 6.8 6.8 7.3 7.0 7.3 6.7 7.3 7.3 7.2 6.9 6.1 5.2 5.5 4.3 4.0 3.5 3.5 3.6 3.6 3.4 3.3 3.1 2.9 3.1 3.6 4.0 4.5 5.0 5.0 5.0 5.1 4.9 4.7 4.6 5.4 5.5 5.3 5.2 4.7 4.3 4.5
1.9 4.9 6.5 6.5 6.5 6.5 6.5 6.9 7.1 6.5 6.9 7.1 7.0 6.7 7.2 6.7 5.9 6.0 5.4 5.0 5.1 3.9 3.5 4.0 3.5 3.6 3.5 3.3 3.0 3.1 3.1 3.3 3.5 3.5 3.9 4.5 4.7 4.7 4.7 5.0 5.3 5.1 4.7 4.8 4.7 4.4 4.3 3.9 4.0
6.1 6.0 6.5 6.5 6.5 6.5 6.7 7.1 7.1 6.9 7.1 6.4 6.8 7.0 7.1 5.2 5.6 5.6 5.3 5.1 4.6 4.8 3.7 3.9 3.2 3.1 3.2 3.2 3.0 3.1 3.5 3.6 3.9 3.8 3.6 3.6 3.9 4.0 4.1 4.0 3.9 4.0 4.1 4.2 4.1 3.9 3.7 3.7 3.6
6.5 6.5 6.5 6.5 6.5 6.5 6.5 6.3 6.8 6.8 6.9 6.9 6.3 6.5 6.4 6.0 5.8 5.0 4.7 4.7 4.4 4.4 4.5 4.0 4.0 3.5 2.9 3.2 3.3 3.6 3.6 3.7 3.9 3.9 3.9 3.8 3.9 3.8 3.8 3.9 4.0 3.9 3.9 3.9 3.8 3.6 3.4 3.3 3.3
4.2 6.7 6.5 6.5 6.5 6.5 6.5 6.6 5.9 6.7 6.6 5.2 5.5 6.7 6.8 6.9 5.7 5.1 5.0 5.1 5.2 4.9 4.6 4.3 4.1 3.8 3.4 3.9 3.3 3.4 3.5 3.8 3.8 3.6 3.4 3.3 3.4 3.3 3.2 3.6 3.6 3.6 3.6 3.5 3.3 3.4 3.5 3.3 3.1
3.2 6.5 6.5 6.5 6.5 6.5 6.5 6.6 5.8 5.4 6.5 5.7 5.7 5.4 5.0 6.9 5.5 5.2 5.2 5.4 5.2 4.5 4.4 3.9 4.0 3.5 3.3 3.7 3.6 3.8 3.5 3.5 3.4 3.5 3.2 3.7 4.4 4.5 4.7 3.4 3.1 3.0 2.8 2.9 3.1 3.0 2.8 2.8 2.3
6.5 6.5 6.5 6.6 6.6 6.5 6.8 6.7 6.6 6.8 6.8 6.7 5.6 3.9 4.0 5.2 5.4 5.7 6.0 5.7 5.0 4.7 5.0 4.6 3.8 3.8 3.4 3.8 3.7 4.0 4.2 4.5 4.4 4.5 4.2 4.6 4.2 4.3 4.2 3.9 3.1 2.8 2.7 2.4 2.4 2.3 2.0 2.9 4.2
6.3 6.5 6.5 6.6 6.4 6.2 6.7 6.7 5.8 6.8 6.5 6.3 6.4 4.2 4.2 5.2 5.8 6.2 6.4 6.5 6.1 6.1 5.6 4.8 3.9 3.3 3.6 4.2 4.3 4.3 4.3 4.3 4.3 4.1 4.2 4.2 4.2 4.3 4.6 4.6 4.5 4.0 2.8 3.7 3.3 3.7 4.0 4.0 4.0
6.5 6.4 6.5 6.4 5.2 5.5 6.6 6.1 6.7 6.1 6.6 4.8 4.8 4.3 4.2 5.0 5.7 5.8 6.3 6.2 5.7 5.3 5.7 5.0 3.7 3.2 3.2 3.9 4.6 4.7 4.8 4.7 5.0 4.8 4.4 4.8 5.1 4.9 4.8 5.0 4.7 4.2 4.2 4.0 3.8 3.7 3.6 3.7 3.5
6.5 6.6 6.1 6.0 5.1 5.9 5.8 6.6 6.5 6.3 5.6 4.2 3.6 3.3 4.1 4.9 5.2 5.6 6.0 6.0 5.2 4.9 5.2 5.1 3.8 3.4 3.0 3.1 3.8 4.0 4.6 5.1 5.2 4.9 4.5 4.8 5.3 5.4 5.1 5.2 4.9 4.7 4.3 4.5 4.4 4.2 4.3 4.2 4.1
6.4 6.6 6.5 6.0 6.4 5.9 6.5 6.7 6.2 6.4 4.8 4.0 3.4 4.1 4.4 4.4 4.5 5.1 5.0 5.3 4.5 5.0 4.7 4.5 3.9 2.9 2.7 3.8 3.5 4.3 4.4 4.8 4.7 4.9 5.0 4.3 5.0 5.3 5.5 5.5 5.4 4.9 4.6 4.9 4.5 4.4 4.6 4.5 4.2
5.8 6.5 6.5 6.8 6.8 6.6 6.0 6.5 6.5 5.9 4.9 5.3 4.6 4.6 4.4 3.9 4.3 4.5 5.1 4.9 4.9 4.4 4.6 4.1 4.0 2.9 3.0 3.4 3.7 4.1 4.4 3.9 4.7 4.8 4.2 4.3 4.5 5.0 5.2 5.7 5.8 5.7 5.0 4.4 4.3 4.3 4.1 4.6 4.2
6.5 6.5 6.5 6.5 6.7 6.4 6.4 6.5 6.6 5.8 6.3 6.6 5.3 4.7 4.6 4.6 4.4 4.3 3.9 4.3 4.4 4.3 3.9 4.4 4.0 3.7 3.4 3.5 3.7 4.0 4.0 3.8 4.2 4.1 4.1 3.9 4.1 4.3 4.7 5.4 5.7 5.7 4.9 4.9 5.1 5.6 5.7 5.5 5.6
6.5 6.5 6.5 6.5 6.8 6.5 6.5 6.5 6.7 7.2 6.3 7.0 5.8 4.9 4.8 5.1 4.4 4.4 4.6 4.7 4.5 3.7 3.7 4.0 3.6 3.8 3.7 3.3 3.4 3.2 3.0 3.5 4.2 3.7 4.1 4.1 3.9 3.9 4.3 5.0 5.3 4.7 5.1 5.0 5.4 5.1 4.8 5.8 6.0
6.5 6.5 6.5 6.5 6.5 6.5 6.5 6.5 6.6 7.1 6.9 6.7 5.0 4.3 4.0 4.4 5.4 4.9 4.4 3.5 3.1 2.5 3.3 3.9 3.7 3.6 3.2 3.2 2.8 3.4 3.5 4.0 3.7 4.4 4.5 4.1 4.4 3.9 4.1 4.8 4.7 4.4 5.0 4.9 4.7 4.7 5.0 5.8 6.4
6.5 6.5 6.5 6.5 6.5 6.5 6.5 6.5 6.5 7.0 7.1 7.0 6.8 5.6 5.3 5.4 3.9 2.7 1.5 2.1 2.2 1.8 2.8 3.5 3.9 3.6 3.3 3.4 4.1 4.7 4.9 4.9 5.0 4.8 4.0 3.8 4.3 4.2 4.3 5.1 5.1 4.8 5.3 5.5 5.1 5.1 4.8 5.5 5.2
6.5 6.5 6.5 6.5 6.5 6.5 6.5 6.5 6.5 6.8 6.9 7.0 7.0 6.5 5.3 4.8 3.9 2.4 1.8 1.2 2.0 3.5 3.5 3.5 3.3 2.9 3.3 3.5 3.5 3.6 3.7 4.1 3.9 3.5 3.7 3.8 3.9 4.1 4.1 4.3 5.2 5.2 5.3 5.3 5.4 4.9 5.8 5.4 5.4
6.5 6.5 6.5 6.5 6.5 6.5 6.5 6.5 6.5 6.6 6.9 6.9 6.2 5.5 5.1 4.8 4.9 4.3 3.9 2.4 2.1 2.2 2.0 2.8 3.3 3.6 3.6 3.3 4.2 4.7 4.8 4.8 5.4 5.9 5.8 5.8 5.0 4.7 4.3 4.4 4.9 5.0 4.8 5.3 5.6 5.4 5.6 7.0 6.1
6.5 6.5 6.5 6.5 6.5 6.5 6.5 6.5 6.5 6.5 6.5 6.8 6.7 5.7 5.6 5.6 5.2 4.8 4.4 3.9 3.0 2.6 2.6 3.4 3.7 4.3 4.1 4.1 4.9 4.7 5.2 5.4 5.5 5.1 5.5 5.1 4.4 4.7 4.8 4.7 4.9 5.2 5.4 5.2 5.2 5.9 5.4 6.0 7.9
6.5 6.5 6.5 6.5 6.5 6.5 6.5 6.5 6.5 6.5 6.5 6.5 6.9 6.7 5.4 4.7 4.5 4.5 4.2 3.9 3.5 3.4 3.6 4.1 4.8 4.7 4.4 4.2 4.0 4.2 4.2 4.6 4.8 4.7 4.6 5.1 4.9 4.3 3.9 3.9 4.4 5.1 5.6 5.4 4.9 5.2 5.0 6.6 6.1
6.5 6.5 6.5 6.5 6.5 6.5 6.5 6.5 6.5 6.5 6.5 6.5 6.9 7.1 5.1 4.2 4.4 4.6 4.3 5.1 5.2 4.9 4.6 4.5 4.8 4.6 4.2 4.1 3.9 3.5 3.4 3.4 4.2 4.6 5.0 5.3 5.2 4.9 4.0 3.3 3.6 3.5 3.7 3.7 4.0 4.0 5.6 6.4 7.1
6.5 6.5 6.5 6.5 6.5 6.5 6.5 6.5 6.5 6.5 6.5 6.7 6.8 7.1 5.9 5.0 5.1 5.4 5.7 6.0 5.7 5.2 4.4 4.6 4.4 4.2 3.6 3.7 3.5 3.6 3.9 4.3 5.6 6.2 6.8 6.5 6.6 6.2 4.6 3.8 3.8 3.9 3.8 4.3 5.6 6.4 6.9 7.3 6.4
6.5 6.5 6.5 6.5 6.5 6.5 6.5 6.5 6.5 6.5 7.0 6.8 6.4 6.4 6.1 5.8 5.5 5.8 5.9 5.9 5.8 5.4 5.3 5.2 4.7 4.1 4.0 4.4 4.7 4.7 5.6 6.6 6.9 7.0 7.0 6.4 5.8 5.1 3.7 4.0 4.2 4.8 5.3 6.2 6.9 6.1 6.1 5.2 4.4
6.5 6.5 6.5 6.5 6.5 6.5 6.5 6.5 6.5 6.5 6.6 6.9 7.0 6.7 6.2 6.0 6.0 6.4 6.5 6.4 6.4 5.5 5.5 5.1 5.1 5.6 6.2 6.0 5.4 5.7 6.3 6.5 6.7 6.6 6.2 5.7 4.8 4.4 4.7 5.6 6.5 7.2 7.8 7.0 6.1 5.3 4.9 5.2 5.9
6.5 6.5 6.5 6.5 6.5 6.5 6.5 6.5 6.5 6.5 6.5 6.5 6.8 7.0 6.5 6.3 7.0 7.2 7.2 7.0 6.8 6.7 7.2 6.4 6.8 6.8 6.6 6.5 6.1 6.4 6.6 7.0 6.6 5.6 5.4 5.4 5.1 5.6 6.7 7.9 7.9 7.8 8.4 8.0 7.9 7.5 7.0 6.9 7.1
6.5 6.5 6.5 6.5 6.5 6.5 6.5 6.5 6.5 6.5 6.5 6.5 6.9 6.9 6.8 7.0 7.8 7.9 7.7 7.7 7.4 7.2 7.2 6.6 6.4 6.3 6.5 6.3 5.8 6.0 6.4 6.1 5.6 5.3 5.4 5.4 5.8 7.1 7.6 7.9 8.4 7.8 7.2 8.4 9.1 8.8 8.9 8.6 8.5
6.5 6.5 6.5 6.5 6.5 6.5 6.5 6.5 6.5 6.5 6.7 6.9 7.1 6.8 6.6 6.8 7.5 7.5 7.3 6.8 6.7 6.9 7.4 7.3 6.7 6.4 6.3 5.7 5.9 6.1 5.6 5.3 5.3 6.0 6.5 6.9 8.0 7.6 7.8 7.2 6.1 6.0 6.8 8.6 8.6 8.1 7.7 7.7 7.8
Wind_Speed
2 4 2 3 2 4 3 3 1 5 3 3 2 1 5 5 1 2 3 5 8 8 6 5 7 7 11 14 12 11 10 9 9 11 14 13 14 15 13 11 8 7 5 3 3 1 0 1 3
2 1 3 3 5 8 3 2 4 3 7 6 6 4 3 5 2 5 4 7 9 9 7 6 6 8 10 11 12 10 11 10 9 10 10 10 10 10 9 6 2 4 3 3 3 3 3 3 5
4 3 2 4 3 6 5 1 8 7 3 2 4 3 3 4 4 6 4 9 8 7 8 8 7 7 7 9 10 10 12 11 11 9 10 10 8 8 7 4 4 5 3 4 5 6 7 7 8
2 2 3 6 7 2 3 8 6 6 1 4 4 6 3 2 5 4 11 9 7 6 6 8 9 7 8 11 11 12 14 15 14 12 11 9 6 4 2 1 2 4 2 2 3 6 8 9 10
4 3 5 7 6 3 2 4 5 2 2 3 2 3 3 1 3 12 10 7 8 7 6 7 8 7 8 10 10 10 12 11 11 11 10 10 9 8 6 3 3 4 6 6 6 6 7 8 8
3 2 6 9 6 3 3 2 1 2 1 1 5 4 2 2 8 9 9 7 5 7 7 7 8 7 8 9 9 10 9 9 9 9 10 9 8 7 9 9 9 8 8 9 11 12 10 9 10
6 4 4 5 6 5 3 1 5 4 4 2 5 4 2 4 6 9 7 6 7 6 7 7 7 7 7 8 8 8 8 8 8 7 8 8 8 8 8 8 9 9 10 11 11 11 11 11 10
4 4 4 2 4 4 2 3 4 3 1 2 3 5 5 9 11 8 5 6 6 5 5 6 5 5 4 4 6 7 5 5 5 5 6 6 6 7 7 7 8 9 9 9 9 10 9 9 10
2 4 3 4 5 3 1 3 1 1 5 2 3 4 1 14 13 9 7 5 5 5 6 6 6 5 4 3 3 4 5 6 5 5 5 3 3 3 4 6 7 7 7 7 7 6 6 5 6
4 4 2 2 3 3 2 2 3 3 2 3 2 2 4 15 14 13 11 10 9 9 7 6 5 4 2 2 3 3 4 4 3 2 2 1 1 1 2 4 4 4 4 5 5 5 5 3 2
2 4 4 2 4 3 2 2 1 5 2 4 4 7 12 14 14 13 12 10 12 7 5 6 6 4 4 4 3 3 3 3 2 2 3 3 2 2 2 2 2 2 1 2 3 3 3 3 3
6 3 2 4 4 3 3 3 2 4 2 4 3 12 15 15 16 14 14 13 10 10 10 7 7 5 4 5 5 4 4 4 4 3 4 4 4 5 5 5 5 4 3 3 2 2 2 3 3
5 2 2 2 5 2 3 2 1 6 8 1 5 12 17 16 15 14 14 10 8 10 9 7 5 4 4 4 3 5 6 5 5 5 5 5 5 5 5 6 6 6 6 6 5 4 4 3 2
2 2 3 5 3 4 2 1 1 2 3 4 7 14 14 15 17 12 11 12 12 11 10 7 6 5 3 3 4 4 5 5 6 6 6 7 7 6 7 6 7 7 7 7 6 5 4 4 4
4 4 2 9 5 4 4 1 3 6 5 1 7 8 12 14 11 15 14 14 13 11 8 9 6 6 6 5 5 5 4 4 5 6 7 8 8 8 8 8 7 9 8 8 7 6 5 4 4
5 5 3 4 6 2 4 5 5 7 7 9 4 7 11 14 12 10 8 10 8 9 10 8 6 7 6 6 5 4 4 4 5 6 8 10 10 10 8 8 8 10 9 8 7 4 5 5 5
8 2 3 4 4 7 5 7 5 14 7 9 7 4 8 11 11 7 5 8 8 9 10 10 9 8 7 6 5 4 5 6 6 7 9 11 12 12 11 10 12 11 10 9 7 7 7 7 7
1 1 1 3 4 6 4 7 11 11 6 5 5 2 4 8 7 4 5 4 7 9 9 9 8 8 6 4 4 4 5 7 7 8 10 12 13 14 14 13 14 12 8 8 8 10 8 8 8
3 2 2 3 1 5 3 4 10 9 10 11 10 9 6 3 3 4 4 3 5 6 7 9 8 5 2 2 3 2 3 4 4 6 8 12 14 15 15 14 14 13 10 12 12 10 11 9 8
1 2 2 2 1 1 5 7 4 10 6 7 11 11 9 5 6 6 5 1 2 2 3 3 6 7 3 2 1 2 3 4 5 9 11 11 12 14 14 14 12 11 11 13 14 13 10 9 9
1 2 2 3 6 1 2 3 6 5 6 9 9 5 7 6 5 7 10 10 10 10 9 7 6 6 6 5 4 4 3 3 4 9 10 14 18 18 15 15 13 12 11 12 14 14 16 12 10
2 2 4 4 1 1 3 3 6 5 8 10 9 9 8 9 9 10 11 12 11 9 9 9 10 11 9 10 8 8 6 7 6 8 8 10 16 16 15 14 13 11 10 13 13 12 14 13 13
3 2 1 0 2 2 3 1 3 4 9 10 10 12 12 12 10 9 9 10 11 10 10 9 9 9 10 8 7 5 6 5 6 8 12 12 11 14 13 13 12 10 9 11 13 13 12 11 10
4 2 3 2 2 1 1 1 2 3 4 6 7 12 12 13 11 11 10 10 9 7 8 7 8 7 8 8 6 7 10 11 11 13 12 11 11 10 11 11 7 4 3 2 1 2 1 3 3
8 4 1 0 2 1 1 1 5 9 5 6 8 10 11 10 11 11 10 8 9 10 9 8 9 8 10 11 12 12 10 10 13 14 11 14 11 10 7 3 2 4 7 8 8 7 6 5 4
3 2 2 2 1 3 0 4 6 8 6 7 8 6 8 9 6 5 5 6 7 8 9 8 11 14 14 13 12 9 9 8 10 12 11 11 10 7 1 5 7 7 8 6 6 4 3 6 5
1 4 1 4 1 2 2 1 3 5 7 6 7 8 6 5 6 8 9 8 8 9 9 11 11 10 9 10 8 8 8 11 12 14 13 10 8 2 4 4 4 4 4 4 5 4 4 3 2
2 4 1 3 1 2 5 3 3 9 4 2 4 4 5 5 8 12 12 12 10 8 10 9 9 9 9 9 7 7 9 11 12 12 12 10 4 2 1 2 4 3 3 1 2 2 3 4 4
2 2 5 3 1 1 3 5 4 7 2 5 2 1 2 4 8 10 10 11 10 7 9 9 8 8 9 8 6 9 10 11 10 9 9 6 1 1 5 5 6 8 8 7 5 3 4 5 4
2 2 3 2 2 1 1 7 3 8 1 2 4 3 5 6 9 9 8 8 8 9 11 11 12 11 10 8 9 10 10 9 7 5 4 4 6 8 8 8 6 6 6 7 5 3 3 4 6
Wind_Direction
30 129 134 56 87 83 81 99 199 134 110 23 94 154 103 44 60 83 56 122 119 124 127 101 80 75 78 83 86 84 91 97 97 97 97 101 107 109 113 108 98 75 77 50 34 10 65 151 134
64 120 61 84 97 110 96 291 148 107 122 127 90 99 71 74 66 127 146 150 140 128 127 117 110 88 78 90 93 91 96 105 101 93 96 103 107 109 109 98 77 29 22 355 344 357 21 41 65
132 47 70 84 86 104 109 78 120 127 131 150 121 61 116 109 131 142 130 145 134 139 137 136 131 116 114 94 80 77 76 78 85 89 93 104 109 115 108 87 336 340 305 335 7 23 28 39 52
96 60 69 84 85 63 110 147 147 149 159 68 113 79 72 14 148 151 146 141 130 138 137 140 141 131 98 82 75 65 60 58 58 58 60 70 85 99 116 222 265 280 342 324 8 28 53 56 51
44 68 70 86 79 71 85 166 148 124 64 69 359 93 65 0 124 135 137 145 160 150 146 147 121 106 96 89 87 85 81 80 78 74 70 60 57 57 57 58 52 32 25 22 27 24 37 60 54
71 88 100 103 107 90 73 142 211 85 63 139 93 94 60 33 143 147 142 153 165 153 142 136 136 127 118 114 103 90 87 80 77 81 94 99 100 92 85 91 90 83 64 51 44 45 40 37 54
103 81 104 121 114 105 135 160 145 138 143 178 130 99 72 171 167 149 145 158 172 155 146 148 146 137 123 112 105 101 92 86 90 96 94 98 100 96 88 85 83 80 78 82 89 89 86 74 64
96 87 102 88 147 125 188 143 141 163 93 105 195 153 166 184 164 145 144 149 178 160 163 162 148 139 127 123 115 107 107 109 108 111 110 101 92 90 89 94 85 83 81 77 77 76 75 71 65
122 72 95 145 158 134 156 133 133 118 136 218 200 171 84 152 145 141 147 169 181 200 194 186 174 169 160 132 107 130 138 141 140 138 129 113 95 89 92 95 98 88 80 72 65 62 62 78 83
69 88 133 179 136 105 102 133 150 163 128 209 208 56 117 146 159 165 180 184 196 200 204 209 207 200 188 176 174 163 154 154 152 150 143 131 104 92 82 106 86 66 46 35 35 45 54 49 48
79 108 170 193 155 148 101 97 119 143 239 213 193 159 155 164 177 185 192 199 202 201 217 210 216 221 234 240 218 210 212 183 165 169 189 194 206 231 242 240 265 308 353 337 343 341 351 353 350
96 91 161 163 148 132 137 140 157 207 242 353 201 159 165 177 189 193 201 211 204 209 221 215 219 229 245 256 239 232 231 226 224 218 220 232 241 243 245 249 256 262 258 258 249 256 270 281 298
79 172 159 73 154 171 151 171 146 236 259 321 153 168 181 185 193 204 212 218 221 222 221 220 209 227 232 245 258 238 233 241 252 240 227 224 234 240 244 245 244 244 239 238 232 234 245 243 234
132 83 60 18 51 34 328 7 267 106 41 155 176 189 192 195 197 200 209 217 217 220 218 210 216 226 229 254 244 234 229 240 247 249 244 232 245 253 254 255 252 245 236 236 230 232 234 237 236
84 84 50 29 9 37 302 153 239 345 343 144 199 214 209 213 204 209 212 220 217 223 220 211 208 219 222 238 246 237 231 242 255 258 255 249 248 255 258 261 257 256 244 238 235 227 228 235 232
47 56 23 2 3 13 22 290 310 16 338 291 317 230 220 225 228 232 235 242 237 233 218 205 205 213 228 238 239 244 244 244 253 262 264 256 253 250 252 255 256 256 243 240 241 239 242 245 239
26 82 9 333 48 2 37 297 335 342 312 291 305 287 228 226 226 231 237 235 231 223 212 209 206 217 222 233 249 251 257 251 258 265 266 265 259 250 248 251 255 250 243 235 232 230 229 235 234
123 105 281 268 0 355 7 314 331 359 44 10 357 315 226 230 245 276 276 253 223 208 204 202 206 218 220 245 259 262 266 262 259 261 261 269 266 261 251 255 253 241 238 239 231 232 223 235 241
137 148 246 261 187 335 359 334 7 10 48 48 46 45 54 82 349 329 323 221 198 200 200 205 213 227 271 304 305 312 309 323 304 305 297 280 276 272 264 263 264 254 243 240 234 235 237 232 228
120 207 272 269 267 304 6 36 7 31 35 31 39 43 43 54 40 12 8 1 209 252 261 325 8 23 3 315 339 331 314 300 299 309 305 297 282 275 263 258 260 254 251 248 244 231 233 239 215
15 107 2 289 331 103 351 79 30 26 32 46 40 43 40 34 36 31 27 30 25 27 23 25 25 30 33 18 359 346 315 308 326 335 328 325 319 310 295 283 272 270 259 256 248 240 233 238 225
340 103 302 276 253 213 344 154 46 359 39 33 20 22 11 7 11 19 25 32 31 30 43 56 67 65 44 33 27 12 347 330 332 320 311 308 306 307 307 300 290 279 271 261 258 252 245 240 246
259 343 279 185 158 160 16 125 47 38 47 26 19 20 5 356 6 27 41 58 56 52 52 54 52 41 28 26 21 8 353 338 323 318 316 312 310 311 310 305 296 287 281 276 273 267 252 245 241
313 52 56 77 127 164 66 340 52 39 38 16 19 27 20 16 37 52 66 68 55 42 39 37 27 22 17 12 9 8 8 353 342 339 333 328 323 317 311 307 304 314 325 326 335 56 304 265 208
21 34 335 294 15 198 131 11 100 90 34 20 16 41 36 38 47 53 52 42 29 21 15 10 3 7 10 7 11 6 351 343 332 329 324 317 310 308 311 321 52 76 84 83 81 68 57 56 52
14 47 116 246 306 313 340 169 152 109 51 65 68 60 56 52 56 58 33 10 8 10 8 356 1 4 2 360 352 343 336 332 328 322 311 300 304 302 224 131 114 101 100 93 83 76 74 69 51
64 52 105 105 102 281 326 168 120 198 66 67 45 41 30 12 3 351 343 349 357 360 359 1 356 343 337 333 332 324 326 321 313 309 308 309 308 229 153 117 115 141 148 148 133 127 118 127 143
50 123 28 32 18 293 300 256 222 206 3 36 58 37 5 357 346 338 336 338 337 341 352 330 325 315 309 309 300 303 311 314 317 317 315 317 307 150 140 352 335 335 342 284 245 185 181 217 226
7 50 63 103 65 183 302 274 194 174 153 7 151 218 324 327 319 314 323 328 328 309 309 307 303 301 304 315 310 312 323 329 335 335 341 353 92 140 334 359 15 11 6 340 327 327 296 273 273
116 116 94 112 197 188 235 270 201 174 176 75 195 262 287 300 323 331 336 335 327 323 327 341 340 329 334 328 320 327 331 341 352 4 29 37 27 39 24 18 10 339 306 286 307 300 301 295 290